Location: Carrières
(48.9495°N, 2.0407°E)
Time: 17:37:14
(UTC+00:00)

Tiros 1 - Pass Details

Date: 20 April 2024
Orbit: 624 x 657 km, 48.4° (Epoch: 18 May)

Event Time Altitude Azimuth Distance (km) Brightness Sun altitude
Rises 00:05:00 0° 222° (SW) 2,924 - -29.3°
Reaches altitude 10° 00:07:29 10° 213° (SSW) 2,013 - -29.3°
Maximum altitude 00:11:38 33° 149° (SSE) 1,061 - -29.3°
Drops below altitude 10° 00:15:46 10° 86° (E) 2,004 - -29.2°
Exits shadow 00:16:01 - 84° (E) 2,092 9.9 -29.2°
Sets 00:18:14 0° 77° (ENE) 2,910 10.8 -29.1°
